FW1251 Weather Reports


time (UTC)temp
C
wind
direction
speed
KPH
gust
KPH
rain 1hr
cm
rain 24hr
cm
rain mn
cm
humidity
%
barometer
mb
20260504081540 12 360 0.0 0.0 0.00 0.05 0.00 92 1019.9
20260504050019 13 360 0.0 0.0 0.00 0.05 0.05 89 1021.1
20260504044522 13 360 0.0 0.0 0.00 0.05 0.05 89 1021.1
20260504043019 13 360 0.0 0.0 0.00 0.05 0.05 88 1021.2
20260504041519 14 360 0.0 0.0 0.00 0.05 0.05 88 1021.2
20260504040018 14 360 0.0 0.0 0.00 0.05 0.05 88 1021.1
20260504034528 14 360 0.0 1.6 0.00 0.05 0.05 87 1021.1
20260504033033 15 360 0.0 0.0 0.00 0.05 0.05 86 1021.1
20260504031517 15 360 0.0 1.6 0.00 0.05 0.05 86 1021.3
20260504030016 15 360 0.0 0.0 0.00 0.05 0.05 85 1021.1
20260504024535 15 360 0.0 1.6 0.00 0.05 0.05 84 1021.0
20260504023015 16 360 0.0 0.0 0.00 0.05 0.05 82 1020.9
20260504021515 16 360 0.0 0.0 0.00 0.05 0.05 81 1020.8
20260504020016 16 360 0.0 0.0 0.00 0.05 0.05 80 1020.7
20260504014514 17 360 0.0 0.0 0.00 0.05 0.05 78 1020.6
20260504013016 17 130 0.0 0.0 0.03 0.05 0.05 77 1020.4
20260504011514 18 360 0.0 0.0 0.03 0.05 0.05 74 1020.3
20260504010013 18 132 0.0 0.0 0.03 0.08 0.05 70 1020.1
20260504004532 20 130 0.0 0.0 0.03 0.08 0.05 67 1020.1
20260504003011 21 360 0.0 0.0 0.00 0.05 0.03 63 1020.0
20260504001511 21 360 0.0 1.6 0.00 0.05 0.03 62 1019.9
20260504000010 22 360 0.0 0.0 0.00 0.05 0.03 61 1019.8
20260503234510 22 360 0.0 0.0 0.00 0.05 0.03 59 1019.8
20260503233009 23 360 0.0 0.0 0.00 0.05 0.03 53 1020.0
20260503231509 23 119 0.0 4.8 0.00 0.05 0.03 50 1020.0
20260503230012 23 343 0.0 3.2 0.00 0.05 0.03 52 1019.9
20260503224507 23 346 1.6 8.0 0.00 0.05 0.03 51 1020.0
20260503223006 23 308 3.2 6.4 0.00 0.05 0.03 49 1020.1
20260503221506 23 351 3.2 8.0 0.00 0.05 0.03 49 1020.1
20260503220005 24 5 0.0 4.8 0.00 0.05 0.03 49 1020.3
20260503214502 24 49 0.0 6.4 0.00 0.05 0.03 50 1020.5
20260503213004 25 319 1.6 8.0 0.00 0.05 0.03 47 1020.7
20260503211606 24 294 0.0 6.4 0.00 0.05 0.03 46 1020.9
20260503210058 25 40 0.0 6.4 0.00 0.05 0.03 49 1021.2
20260503204559 24 236 0.0 8.0 0.00 0.05 0.03 45 1021.4
20260503203057 24 12 1.6 6.4 0.00 0.05 0.03 46 1021.7
20260503201555 24 78 0.0 6.4 0.00 0.05 0.03 47 1021.8
20260503200054 24 329 3.2 12.9 0.00 0.05 0.03 47 1022.0
20260503194553 24 5 1.6 8.0 0.00 0.05 0.03 47 1022.4
20260503193057 24 10 3.2 8.0 0.00 0.05 0.03 49 1022.6
20260503191551 23 331 1.6 9.7 0.00 0.05 0.03 48 1022.8
20260503190052 23 61 3.2 12.9 0.00 0.05 0.03 48 1023.1
20260503184601 23 28 4.8 9.7 0.00 0.05 0.03 48 1023.5
20260503183047 23 22 4.8 9.7 0.00 0.05 0.03 48 1023.5
20260503181547 23 13 1.6 8.0 0.00 0.05 0.03 49 1023.7
20260503180045 23 344 0.0 9.7 0.00 0.05 0.03 53 1023.9
20260503174601 22 28 1.6 12.9 0.00 0.05 0.03 52 1023.9
20260503173046 23 21 4.8 9.7 0.00 0.05 0.03 52 1024.2
20260503171541 22 267 1.6 8.0 0.00 0.05 0.03 53 1024.6